Theta_e
300 300 299 299 300 301 301 301 302 304 305 306 308 310 314 319 321 320 320 321 321 320 320 319 319 320 319 319 319 319 317 316 311 313 309 308 306 309 303 305 304 305 304
298 297 297 298 298 298 299 300 301 301 302 303 304 305 307 310 314 319 320 322 321 320 320 319 319 320 319 319 319 318 318 318 315 311 313 300 306 304 307 304 299 301 303
297 295 295 295 296 296 297 298 298 298 299 299 301 301 302 305 308 312 315 319 320 322 321 320 319 319 318 319 319 318 319 318 317 314 313 297 297 294 292 294 297 296 297
295 293 292 293 294 295 296 296 296 296 296 296 297 298 300 302 305 307 310 313 316 318 320 321 321 320 319 319 319 319 318 317 317 314 313 292 292 289 297 296 289 289 291
293 292 291 293 294 294 294 294 293 293 293 293 294 295 296 298 301 303 306 309 312 314 316 318 319 315 306 312 319 319 318 316 315 312 308 291 289 286 292 291 297 294 288
292 291 291 291 291 291 292 291 290 290 290 290 291 291 292 294 296 296 298 302 305 308 310 313 315 304 305 300 302 306 314 317 314 312 307 302 300 297 296 294 294 286 286
290 290 289 289 288 288 289 288 288 288 288 288 288 289 289 291 293 294 293 295 297 301 305 309 311 313 303 312 307 301 302 304 308 315 309 305 305 299 297 294 293 294 295
289 288 287 286 285 285 285 285 286 287 287 287 287 288 288 289 292 292 292 293 295 297 300 304 306 308 310 308 309 309 309 308 308 308 312 314 311 304 300 299 295 290 285
287 286 285 285 284 284 284 284 285 284 285 285 285 286 286 287 291 291 291 291 291 292 295 298 301 303 302 300 305 306 306 306 305 299 304 307 304 301 300 292 287 288 284
287 286 285 285 284 284 285 285 283 283 285 285 285 286 286 286 289 291 291 289 289 290 293 294 293 295 298 299 301 302 301 303 296 289 290 296 299 297 294 297 291 290 283
286 285 285 284 284 285 285 284 284 284 284 284 284 285 286 286 287 291 292 289 289 289 290 292 294 296 296 297 298 301 302 303 291 289 286 286 287 289 287 289 290 293 286
284 284 284 283 284 285 283 285 284 282 282 283 283 284 286 286 287 289 291 292 292 290 290 292 293 294 296 297 296 299 298 294 286 286 286 285 285 285 284 284 284 284 284
283 283 283 284 284 284 282 284 284 282 282 283 283 284 285 286 287 289 291 292 292 290 290 291 292 293 294 295 296 295 291 288 287 286 286 286 286 283 281 280 279 279 278
279 280 282 282 283 284 285 284 284 284 283 283 283 283 284 285 286 287 286 287 288 290 290 290 291 292 292 293 289 292 291 289 288 288 287 281 281 282 281 281 279 278 276
275 276 277 278 279 281 283 284 284 285 285 283 283 283 283 283 286 288 288 288 288 289 288 288 288 288 288 286 286 286 286 287 287 285 281 281 280 279 278 279 278 277 274
271 272 274 275 276 277 278 279 285 286 287 288 288 287 285 287 288 288 289 289 290 291 288 287 287 287 287 286 285 284 285 286 285 282 282 280 279 278 277 278 278 276 273
269 270 271 272 273 273 275 276 276 280 285 286 285 285 286 286 287 288 288 289 290 290 287 287 287 287 287 287 286 285 285 286 285 284 282 281 280 278 277 277 276 275 273
267 267 268 269 271 272 273 274 276 276 276 277 281 283 284 285 286 286 287 288 286 288 287 287 287 287 287 287 286 286 286 283 283 282 281 279 278 277 276 276 276 274 272
264 265 266 267 268 269 271 272 274 274 274 274 275 277 279 282 284 285 287 285 285 285 286 287 288 288 287 287 287 286 282 282 281 280 279 278 278 277 276 275 274 273 272
264 265 266 267 268 269 269 269 269 270 270 271 272 273 275 278 279 280 284 285 286 286 287 287 288 288 287 286 284 282 281 279 279 278 278 277 277 277 275 274 273 272 271
265 265 265 265 265 266 266 266 267 268 268 269 270 272 277 276 277 279 282 284 286 286 286 287 287 287 286 284 282 281 280 279 279 278 278 277 276 274 274 273 272 270 268
263 263 263 262 263 264 264 265 266 266 267 268 269 271 276 275 277 279 281 284 287 287 288 287 287 285 283 282 281 280 279 278 277 277 276 275 274 273 272 271 270 269 267
262 262 262 263 263 263 264 264 265 266 266 267 268 270 272 274 276 279 283 286 285 283 284 284 282 281 281 282 281 280 278 277 277 276 274 273 272 271 270 269 268 267 266
262 262 262 262 263 264 264 265 266 267 267 268 270 271 273 275 278 280 275 274 274 275 277 280 280 279 278 278 278 278 277 276 276 275 274 272 270 270 269 267 267 265 264
262 262 263 264 265 266 267 268 270 271 272 273 273 272 272 270 270 270 270 270 271 271 272 273 274 274 274 274 274 274 274 273 273 273 272 271 269 268 267 265 264 263 262
261 262 262 263 263 264 265 266 267 267 267 267 267 267 267 266 267 267 267 267 266 266 266 268 269 269 270 270 270 270 271 271 270 270 269 268 266 265 264 263 263 261 260
Wind_Speed
5 4 6 6 6 5 5 5 6 7 8 9 9 9 10 11 11 13 16 17 18 18 18 18 20 19 14 14 13 13 15 15 18 14 5 7 9 11 8 11 9 11 9
4 5 5 5 5 5 5 5 6 7 8 9 10 10 11 11 12 13 14 14 17 19 19 18 20 15 20 19 15 17 16 17 16 23 14 7 11 11 11 12 7 7 9
4 4 4 4 5 5 5 5 5 6 8 9 9 10 12 12 12 12 13 15 16 18 18 19 20 18 20 16 17 16 15 14 16 17 16 3 3 3 4 2 6 6 5
4 2 3 4 4 5 5 6 6 6 8 8 9 10 11 12 13 13 13 15 16 17 18 18 19 19 21 21 19 20 18 17 17 16 16 4 4 3 6 9 5 5 7
4 1 3 4 5 6 6 6 6 6 7 8 10 11 11 10 9 12 13 15 16 17 18 18 18 18 21 21 14 19 16 16 16 14 12 4 6 5 13 6 11 8 4
5 4 4 4 5 6 6 7 6 7 7 7 9 10 12 8 12 14 13 14 18 18 18 19 19 16 18 21 22 30 28 19 19 15 12 15 16 11 10 11 9 6 5
5 4 5 5 6 7 7 7 8 9 7 9 10 10 12 11 15 16 15 12 16 17 19 17 18 14 12 15 17 22 27 28 28 19 16 14 15 14 12 12 14 12 9
6 5 6 6 7 7 7 8 9 9 10 11 12 12 14 12 15 15 15 13 15 17 18 18 19 19 17 13 13 16 19 19 20 16 22 19 18 15 20 18 15 8 6
7 7 7 7 7 7 8 8 9 8 10 11 11 12 14 17 16 15 15 11 13 18 17 18 17 19 18 13 15 20 20 19 13 15 25 28 17 18 20 12 10 12 4
7 8 7 7 8 9 10 10 6 7 12 10 14 12 15 20 17 17 14 8 13 13 17 17 18 17 20 17 16 15 19 17 11 6 4 5 11 14 26 19 15 14 7
6 7 7 7 10 10 11 8 10 10 11 12 16 15 17 16 18 19 18 11 10 12 13 14 13 19 17 19 21 17 20 16 9 3 4 4 4 6 1 5 5 10 7
7 7 9 9 8 9 10 11 9 9 12 13 14 16 12 12 15 16 19 22 17 14 16 13 15 21 24 24 19 23 24 10 4 6 6 5 7 7 6 6 12 10 6
9 10 10 10 10 10 10 13 11 8 10 13 11 14 17 10 9 14 19 21 21 15 14 20 27 26 26 23 26 25 14 8 8 7 9 8 7 8 12 12 14 17 15
12 13 12 13 13 12 10 9 11 10 11 12 12 13 14 16 12 8 7 7 12 14 17 17 19 21 24 20 11 11 9 9 10 10 8 7 8 7 9 11 12 10 13
15 14 13 11 13 13 12 12 13 13 13 13 13 13 13 18 17 15 12 10 11 15 17 14 14 11 9 6 3 5 5 7 8 7 10 10 8 10 8 10 12 7 9
15 13 11 12 12 12 13 15 21 27 28 29 31 25 18 32 40 37 38 35 32 27 14 14 14 12 11 9 9 8 7 9 8 10 10 12 11 11 11 9 8 10 13
16 15 13 14 13 13 13 14 18 14 25 28 31 34 36 38 40 40 41 38 39 27 15 15 15 13 11 11 10 10 11 10 10 10 12 13 14 12 14 12 10 12 11
16 20 14 13 13 13 13 14 14 16 16 16 20 26 30 34 36 38 37 30 19 18 15 16 15 13 12 12 11 11 9 9 10 11 11 12 12 12 11 11 10 13 12
14 13 13 13 13 15 14 15 14 15 16 18 18 23 21 31 33 36 34 18 18 19 16 15 14 13 12 12 11 10 10 11 11 11 12 12 12 12 12 11 11 14 15
14 19 18 13 13 12 12 15 15 15 17 16 17 19 16 16 15 15 15 15 14 14 14 15 14 12 12 11 10 10 11 12 13 11 11 12 12 11 12 13 12 13 11
12 13 18 15 14 14 13 14 15 15 16 16 18 19 31 20 18 16 15 15 13 13 15 14 12 11 10 10 10 11 12 12 12 13 13 13 12 12 11 11 12 12 12
14 14 14 14 13 14 14 14 14 16 16 17 18 19 33 18 17 17 17 17 14 13 11 11 9 8 9 11 12 12 13 13 13 13 14 13 13 12 12 12 12 12 12
13 15 15 14 14 17 15 14 15 15 17 17 17 17 16 15 16 17 17 13 8 6 6 7 8 8 7 8 9 11 14 13 13 14 16 15 13 12 12 12 12 12 11
14 15 16 15 14 15 15 16 15 20 19 18 17 17 17 17 14 13 4 1 2 2 3 5 7 12 11 10 10 10 11 12 13 14 18 15 14 15 12 12 11 13 12
12 13 13 13 13 14 15 14 13 14 14 13 12 11 11 5 3 2 2 3 4 5 7 6 6 11 14 17 16 17 20 22 17 18 13 16 17 18 14 12 13 12 12
12 13 12 10 11 11 11 10 10 8 7 6 5 4 4 3 4 4 5 6 7 8 9 8 10 16 18 17 20 23 24 24 19 21 15 14 15 13 13 15 17 12 13
Wind_Direction
66 47 29 12 3 2 357 338 333 324 318 311 302 295 289 278 256 247 248 251 249 248 244 242 242 238 239 238 236 235 233 230 242 245 233 183 185 200 213 214 196 201 201
77 49 29 10 1 2 351 334 331 326 322 315 311 303 294 287 281 274 264 252 251 251 249 242 248 247 241 238 237 236 233 228 232 244 223 196 199 198 212 208 211 194 201
86 47 14 360 350 336 324 321 321 317 316 315 314 310 306 298 291 281 274 270 262 259 259 256 251 242 246 241 236 238 236 235 233 233 238 176 179 165 139 201 213 191 215
125 75 346 323 309 301 302 304 304 305 305 309 308 303 301 300 295 290 284 279 273 269 267 260 257 250 247 246 244 239 239 238 234 227 227 177 182 170 192 198 190 213 186
160 206 288 297 298 296 294 291 291 293 296 295 298 302 300 300 299 306 303 295 286 279 273 269 263 256 247 248 246 253 246 244 244 235 222 171 172 168 196 185 206 193 186
187 239 274 295 300 293 290 291 295 290 284 283 289 290 298 296 296 297 298 301 297 284 279 275 270 260 253 243 244 251 248 258 247 237 223 215 203 202 181 192 182 150 215
197 249 275 291 291 282 283 286 285 284 282 286 285 283 287 291 294 296 296 298 293 287 282 280 278 271 263 260 247 249 250 246 240 244 230 213 212 200 183 185 196 186 203
217 248 269 271 271 278 280 274 278 277 281 285 285 282 286 287 286 288 289 293 289 287 283 280 277 279 273 261 254 260 256 248 246 245 250 248 228 194 198 194 189 150 69
232 242 258 260 269 272 268 265 264 274 282 278 278 281 278 284 281 276 287 290 288 286 283 281 275 274 277 270 257 260 260 260 251 250 249 250 233 195 181 138 152 162 123
238 250 260 260 256 261 264 268 260 255 279 282 282 275 269 278 278 268 271 272 283 285 287 283 266 260 263 255 254 259 262 263 249 255 258 208 192 180 173 180 161 177 136
282 269 266 253 256 259 269 262 264 267 275 278 279 278 272 263 272 264 259 258 266 280 281 288 285 278 252 245 247 257 258 265 226 204 104 85 80 124 83 100 120 168 150
273 274 267 261 261 272 262 274 266 260 270 275 276 280 267 262 253 255 247 242 254 269 275 277 278 279 275 264 250 258 259 240 141 153 152 154 150 140 118 96 98 89 55
293 289 286 280 276 267 262 273 276 258 263 276 277 285 292 283 274 253 248 249 256 268 271 273 280 280 275 272 265 259 245 191 178 175 177 166 159 136 122 107 85 86 78
309 299 294 289 287 279 269 259 263 264 267 270 271 275 282 288 280 274 252 245 252 277 282 282 284 282 268 262 266 243 212 193 194 190 168 124 129 140 137 124 115 116 102
302 298 294 287 285 285 272 267 261 255 253 264 264 268 278 278 275 274 270 271 278 278 286 284 283 280 266 234 204 188 185 180 184 157 152 146 141 134 133 129 126 115 115
299 298 294 293 288 283 283 281 263 268 266 261 264 262 270 264 276 278 278 278 276 277 275 276 273 265 251 230 206 191 190 188 172 163 158 152 147 145 138 131 115 118 121
288 289 288 285 285 284 281 281 289 277 270 269 269 271 268 270 275 276 277 278 278 277 259 266 266 254 243 230 213 201 197 188 174 174 165 163 149 143 144 136 126 121 122
283 283 281 279 278 278 278 278 278 282 287 279 270 272 275 276 276 277 276 279 273 262 253 255 252 248 239 228 212 204 190 166 170 164 160 149 139 136 136 130 128 130 130
282 279 279 279 277 276 276 272 273 277 278 283 290 279 274 273 271 271 269 258 260 261 258 253 245 237 229 220 210 192 172 167 158 154 146 143 135 137 136 125 126 133 129
278 274 272 275 276 279 284 280 277 275 276 275 277 279 287 282 272 269 263 255 250 255 256 256 247 232 221 208 189 172 161 157 147 143 143 135 133 135 133 130 132 130 121
283 287 280 278 275 273 273 271 271 271 271 271 271 273 275 277 275 272 267 265 257 249 249 249 238 225 204 187 175 166 160 157 147 144 140 134 133 129 127 126 120 116 121
289 286 282 276 274 272 270 269 269 269 268 269 272 273 275 271 270 268 265 262 256 246 241 240 223 195 178 169 167 164 156 151 144 137 129 125 122 121 120 121 119 125 123
286 284 281 277 274 274 272 269 267 265 266 265 268 270 268 265 265 266 262 256 246 214 201 183 164 154 155 156 162 157 148 143 136 131 125 122 123 121 123 125 127 122 126
286 284 282 280 278 272 268 268 265 264 263 264 265 265 266 265 266 281 254 155 128 98 105 136 148 145 132 130 132 131 123 120 122 122 121 121 120 122 121 119 118 122 125
296 291 290 286 285 284 284 278 273 274 277 281 288 289 291 289 301 329 38 69 74 76 73 83 99 114 118 121 119 117 117 115 113 117 114 115 119 119 118 115 122 118 120
310 306 303 301 302 302 299 302 302 301 303 307 312 325 342 0 16 28 44 58 66 64 69 68 84 100 104 103 107 109 107 107 107 108 112 118 117 116 116 120 122 121 123